Content
SEND FEEDBACK

Daily
Averages
Monthly
Summary
United States of America

WETMORE, KANSAS


Home > North America > United States > Kansas
Elevation: 1180 feet     Latitude: 39 44N     Longitude: 095 50W

WEATHER
 
SELECT A DAY
Number of Records: 170,942;   Date Range: 1/1/95 - 9/30/14
 
SHARE

PRINT THIS DATA

[ ← Previous Day ]
WEATHER ALMANAC - JANUARY 31, 2013
[ Next Day → ]
[ °C ]   °F
Weather ElementAverageHighLow
Temperature10.6 °F18 °F (2:53 am) (11:53 pm)
Dewpoint1 °F12.9 °F (2:53 am)-6 °F (10:53 pm)
Humidity65.5 %81 % (1:53 am)56 % (12:53 pm)
Barometer30.27 in30.53 in (10:53 pm)29.99 in (1:53 am)
Wind Speed11.9 mph24.2 mph (12:43 pm)
Wind Gust36.8 mph (12:43 pm)
Weather ElementAverage
Visibility10 mi
Wind DirectionNW (310.8 °)

Weather ElementTotal
Precipitation---
Heating Degree Days56 (Base 65)
Averaged from 25 records on January 31, 2013
WEATHER CONDITIONS BREAKOUT
WIND DIRECTION BREAKOUT
WEATHER BY HOUR - JANUARY 31, 2013
[ °C ]   °F
Local TimeTemperatureDewpointHumidityBarometerVisibilityWind DirectionWind SpeedGust SpeedPrecipitationEventsConditions
1:53 AM17.1 °F12.0 °F81 %29.99 in10.0 miWNW (290°)5.8 mphOvercast
2:53 AM18.0 °F12.9 °F81 %30.01 in10.0 miWNW (290°)4.6 mphOvercast
3:53 AM18.0 °F10.0 °F71 %30.00 in10.0 miNNW (340°)5.8 mphOvercast
4:53 AM17.1 °F9.0 °F71 %30.02 in10.0 miNNW (330°)6.9 mphPartly Cloudy
5:53 AM15.1 °F7.0 °F70 %30.06 in10.0 miNNW (330°)13.8 mphMostly Cloudy
6:53 AM12.0 °F1.0 °F61 %30.10 in10.0 miNNW (330°)12.7 mph20.7 mphMostly Cloudy
7:53 AM10.0 °F1.0 °F67 %30.13 in10.0 miNW (320°)10.4 mphClear
8:53 AM10.9 °F1.9 °F67 %30.16 in10.0 miNW (320°)13.8 mph18.4 mphMostly Cloudy
9:53 AM12.9 °F1.9 °F62 %30.21 in10.0 miNNW (330°)15.0 mph28.8 mphOvercast
10:53 AM14.0 °F1.9 °F59 %30.25 in10.0 miNW (310°)16.1 mph27.6 mphOvercast
11:53 AM12.0 °F0.0 °F59 %30.29 in10.0 miNNW (330°)20.7 mph33.4 mphScattered Clouds
12:04 PM12.2 °F1.4 °F62 %30.25 in10.0 miNW (320°)23.0 mph29.9 mphMostly Cloudy
12:43 PM10.4 °F-2.2 °F57 %30.26 in10.0 miNW (320°)24.2 mph36.8 mphScattered Clouds
12:53 PM10.9 °F-2.0 °F56 %30.32 in10.0 miNNW (330°)21.9 mph35.7 mphScattered Clouds
2:27 PM12.2 °F1.4 °F62 %30.29 in10.0 miNW (310°)18.4 mph28.8 mphMostly Cloudy
2:53 PM12.0 °F-0.9 °F56 %30.35 in10.0 miNW (320°)16.1 mph26.5 mphScattered Clouds
3:53 PM12.0 °F0.0 °F59 %30.37 in10.0 miNNW (330°)16.1 mph24.2 mphPartly Cloudy
4:53 PM10.9 °F-0.9 °F59 %30.39 in10.0 miNNW (330°)12.7 mph18.4 mphClear
5:53 PM9.0 °F-2.0 °F61 %30.41 in10.0 miNW (320°)9.2 mphClear
6:53 PM7.0 °F-2.9 °F64 %30.43 in10.0 miNNW (330°)4.6 mphClear
7:53 PM3.9 °F-4.0 °F70 %30.45 in10.0 miWest (280°)3.5 mphClear
8:53 PM3.0 °F-5.1 °F69 %30.48 in10.0 miWest (280°)4.6 mphClear
9:53 PM3.0 °F-5.1 °F69 %30.50 in10.0 miWNW (300°)4.6 mphClear
10:53 PM1.9 °F-6.0 °F69 %30.53 in10.0 miWSW (240°)6.9 mphClear
11:53 PM0.0 °F-6.0 °F76 %30.53 in10.0 miWSW (240°)6.9 mphClear
Hourly data recorded from KFNB, located miles away from Wetmore, Kansas







STORIES FROM OUR PARTNERS